Year,Month,Day,Hour,Minute,Value (Times are PST for windgust in km/hr)
2018,07,01,00,00,9.60
2018,07,01,00,01,11.30
2018,07,01,00,02,12.90
2018,07,01,00,03,11.30
2018,07,01,00,04,14.50
2018,07,01,00,05,8.10
2018,07,01,00,06,4.80
2018,07,01,00,07,8.10
2018,07,01,00,08,14.50
2018,07,01,00,09,9.60
2018,07,01,00,10,9.60
2018,07,01,00,11,9.60
2018,07,01,00,12,11.30
2018,07,01,00,13,14.50
2018,07,01,00,14,8.10
2018,07,01,00,15,8.10
2018,07,01,00,16,11.30
2018,07,01,00,17,11.30
2018,07,01,00,18,11.30
2018,07,01,00,19,9.60
2018,07,01,00,20,4.80
2018,07,01,00,21,9.60
2018,07,01,00,22,16.10
2018,07,01,00,23,11.30
2018,07,01,00,24,9.60
2018,07,01,00,25,9.60
2018,07,01,00,26,9.60
2018,07,01,00,27,4.80
2018,07,01,00,28,6.40
2018,07,01,00,29,9.60
2018,07,01,00,30,11.30
2018,07,01,00,31,9.60
2018,07,01,00,32,6.40
2018,07,01,00,33,8.10
2018,07,01,00,34,8.10
2018,07,01,00,35,9.60
2018,07,01,00,36,11.30
2018,07,01,00,37,11.30
2018,07,01,00,38,11.30
2018,07,01,00,39,12.90
2018,07,01,00,40,9.60
2018,07,01,00,41,11.30
2018,07,01,00,42,14.50
2018,07,01,00,43,14.50
2018,07,01,00,44,11.30
2018,07,01,00,45,12.90
2018,07,01,00,46,9.60
2018,07,01,00,47,12.90
2018,07,01,00,48,14.50
2018,07,01,00,49,16.10
2018,07,01,00,50,11.30
2018,07,01,00,51,16.10
2018,07,01,00,52,12.90
2018,07,01,00,53,11.30
2018,07,01,00,54,11.30
2018,07,01,00,55,9.60
2018,07,01,00,56,8.10
2018,07,01,00,57,11.30
2018,07,01,00,58,8.10
2018,07,01,00,59,11.30
2018,07,01,01,00,11.30
2018,07,01,01,01,16.10
2018,07,01,01,02,6.40
2018,07,01,01,03,8.10
2018,07,01,01,04,14.50
2018,07,01,01,05,9.60
2018,07,01,01,06,11.30
2018,07,01,01,07,8.10
2018,07,01,01,08,9.60
2018,07,01,01,09,9.60
2018,07,01,01,10,11.30
2018,07,01,01,11,9.60
2018,07,01,01,12,11.30
2018,07,01,01,13,11.30
2018,07,01,01,14,16.10
2018,07,01,01,15,16.10
2018,07,01,01,16,9.60
2018,07,01,01,17,11.30
2018,07,01,01,18,9.60
2018,07,01,01,19,16.10
2018,07,01,01,20,8.10
2018,07,01,01,21,11.30
2018,07,01,01,22,8.10
2018,07,01,01,23,9.60
2018,07,01,01,24,12.90
2018,07,01,01,25,9.60
2018,07,01,01,26,8.10
2018,07,01,01,27,8.10
2018,07,01,01,28,11.30
2018,07,01,01,29,9.60
2018,07,01,01,30,8.10
2018,07,01,01,31,12.90
2018,07,01,01,32,14.50
2018,07,01,01,33,11.30
2018,07,01,01,34,8.10
2018,07,01,01,35,9.60
2018,07,01,01,36,11.30
2018,07,01,01,37,6.40
2018,07,01,01,38,6.40
2018,07,01,01,39,8.10
2018,07,01,01,40,9.60
2018,07,01,01,41,8.10
2018,07,01,01,42,14.50
2018,07,01,01,43,11.30
2018,07,01,01,44,11.30
2018,07,01,01,45,12.90
2018,07,01,01,46,9.60
2018,07,01,01,47,14.50
2018,07,01,01,48,17.70
2018,07,01,01,49,14.50
2018,07,01,01,50,12.90
2018,07,01,01,51,11.30
2018,07,01,01,52,11.30
2018,07,01,01,53,14.50
2018,07,01,01,54,11.30
2018,07,01,01,55,11.30
2018,07,01,01,56,12.90
2018,07,01,01,57,14.50
2018,07,01,01,58,8.10
2018,07,01,01,59,11.30
2018,07,01,02,00,9.60
2018,07,01,02,01,8.10
2018,07,01,02,02,8.10
2018,07,01,02,03,8.10
2018,07,01,02,04,8.10
2018,07,01,02,05,9.60
2018,07,01,02,06,11.30
2018,07,01,02,07,6.40
2018,07,01,02,08,6.40
2018,07,01,02,09,9.60
2018,07,01,02,10,8.10
2018,07,01,02,11,9.60
2018,07,01,02,12,6.40
2018,07,01,02,13,6.40
2018,07,01,02,14,11.30
2018,07,01,02,15,11.30
2018,07,01,02,16,11.30
2018,07,01,02,17,8.10
2018,07,01,02,18,4.80
2018,07,01,02,19,3.20
2018,07,01,02,20,4.80
2018,07,01,02,21,3.20
2018,07,01,02,22,6.40
2018,07,01,02,23,4.80
2018,07,01,02,24,6.40
2018,07,01,02,25,9.60
2018,07,01,02,26,4.80
2018,07,01,02,27,6.40
2018,07,01,02,28,6.40
2018,07,01,02,29,9.60
2018,07,01,02,30,11.30
2018,07,01,02,31,8.10
2018,07,01,02,32,8.10
2018,07,01,02,33,11.30
2018,07,01,02,34,6.40
2018,07,01,02,35,8.10
2018,07,01,02,36,4.80
2018,07,01,02,37,6.40
2018,07,01,02,38,3.20
2018,07,01,02,39,3.20
2018,07,01,02,40,6.40
2018,07,01,02,41,11.30
2018,07,01,02,42,6.40
2018,07,01,02,43,6.40
2018,07,01,02,44,6.40
2018,07,01,02,45,8.10
2018,07,01,02,46,8.10
2018,07,01,02,47,9.60
2018,07,01,02,48,6.40
2018,07,01,02,49,6.40
2018,07,01,02,50,11.30
2018,07,01,02,51,16.10
2018,07,01,02,52,11.30
2018,07,01,02,53,11.30
2018,07,01,02,54,8.10
2018,07,01,02,55,8.10
2018,07,01,02,56,8.10
2018,07,01,02,57,6.40
2018,07,01,02,58,4.80
2018,07,01,02,59,4.80
2018,07,01,03,00,8.10
2018,07,01,03,01,8.10
2018,07,01,03,02,11.30
2018,07,01,03,03,9.60
2018,07,01,03,04,16.10
2018,07,01,03,05,11.30
2018,07,01,03,06,4.80
2018,07,01,03,07,14.50
2018,07,01,03,08,9.60
2018,07,01,03,09,17.70
2018,07,01,03,10,14.50
2018,07,01,03,11,6.40
2018,07,01,03,12,8.10
2018,07,01,03,13,6.40
2018,07,01,03,14,6.40
2018,07,01,03,15,6.40
2018,07,01,03,16,8.10
2018,07,01,03,17,8.10
2018,07,01,03,18,6.40
2018,07,01,03,19,4.80
2018,07,01,03,20,9.60
2018,07,01,03,21,6.40
2018,07,01,03,22,4.80
2018,07,01,03,23,9.60
2018,07,01,03,24,9.60
2018,07,01,03,25,11.30
2018,07,01,03,26,4.80
2018,07,01,03,27,8.10
2018,07,01,03,28,8.10
2018,07,01,03,29,8.10
2018,07,01,03,30,6.40
2018,07,01,03,31,6.40
2018,07,01,03,32,12.90
2018,07,01,03,33,11.30
2018,07,01,03,34,8.10
2018,07,01,03,35,6.40
2018,07,01,03,36,6.40
2018,07,01,03,37,6.40
2018,07,01,03,38,9.60
2018,07,01,03,39,11.30
2018,07,01,03,40,11.30
2018,07,01,03,41,9.60
2018,07,01,03,42,8.10
2018,07,01,03,43,11.30
2018,07,01,03,44,11.30
2018,07,01,03,45,9.60
2018,07,01,03,46,6.40
2018,07,01,03,47,9.60
2018,07,01,03,48,8.10
2018,07,01,03,49,6.40
2018,07,01,03,50,8.10
2018,07,01,03,51,14.50
2018,07,01,03,52,6.40
2018,07,01,03,53,4.80
2018,07,01,03,54,9.60
2018,07,01,03,55,9.60
2018,07,01,03,56,11.30
2018,07,01,03,57,9.60
2018,07,01,03,58,11.30
2018,07,01,03,59,11.30
2018,07,01,04,00,9.60
2018,07,01,04,01,8.10
2018,07,01,04,02,8.10
2018,07,01,04,03,8.10
2018,07,01,04,04,8.10
2018,07,01,04,05,14.50
2018,07,01,04,06,16.10
2018,07,01,04,07,14.50
2018,07,01,04,08,17.70
2018,07,01,04,09,14.50
2018,07,01,04,10,16.10
2018,07,01,04,11,14.50
2018,07,01,04,12,14.50
2018,07,01,04,13,9.60
2018,07,01,04,14,14.50
2018,07,01,04,15,9.60
2018,07,01,04,16,9.60
2018,07,01,04,17,9.60
2018,07,01,04,18,8.10
2018,07,01,04,19,16.10
2018,07,01,04,20,8.10
2018,07,01,04,21,11.30
2018,07,01,04,22,14.50
2018,07,01,04,23,11.30
2018,07,01,04,24,19.30
2018,07,01,04,25,17.70
2018,07,01,04,26,9.60
2018,07,01,04,27,12.90
2018,07,01,04,28,8.10
2018,07,01,04,29,14.50
2018,07,01,04,30,14.50
2018,07,01,04,31,19.30
2018,07,01,04,32,11.30
2018,07,01,04,33,16.10
2018,07,01,04,34,9.60
2018,07,01,04,35,9.60
2018,07,01,04,36,14.50
2018,07,01,04,37,6.40
2018,07,01,04,38,11.30
2018,07,01,04,39,8.10
2018,07,01,04,40,16.10
2018,07,01,04,41,14.50
2018,07,01,04,42,12.90
2018,07,01,04,43,14.50
2018,07,01,04,44,9.60
2018,07,01,04,45,8.10
2018,07,01,04,46,6.40
2018,07,01,04,47,6.40
2018,07,01,04,48,4.80
2018,07,01,04,49,9.60
2018,07,01,04,50,9.60
2018,07,01,04,51,8.10
2018,07,01,04,52,9.60
2018,07,01,04,53,6.40
2018,07,01,04,54,8.10
2018,07,01,04,55,9.60
2018,07,01,04,56,9.60
2018,07,01,04,57,12.90
2018,07,01,04,58,14.50
2018,07,01,04,59,4.80
2018,07,01,05,00,8.10
2018,07,01,05,01,14.50
2018,07,01,05,02,11.30
2018,07,01,05,03,8.10
2018,07,01,05,04,9.60
2018,07,01,05,05,11.30
2018,07,01,05,06,14.50
2018,07,01,05,07,11.30
2018,07,01,05,08,11.30
2018,07,01,05,09,9.60
2018,07,01,05,10,12.90
2018,07,01,05,11,14.50
2018,07,01,05,12,8.10
2018,07,01,05,13,9.60
2018,07,01,05,14,8.10
2018,07,01,05,15,8.10
2018,07,01,05,16,8.10
2018,07,01,05,17,9.60
2018,07,01,05,18,11.30
2018,07,01,05,19,14.50
2018,07,01,05,20,11.30
2018,07,01,05,21,12.90
2018,07,01,05,22,8.10
2018,07,01,05,23,9.60
2018,07,01,05,24,9.60
2018,07,01,05,25,8.10
2018,07,01,05,26,8.10
2018,07,01,05,27,8.10
2018,07,01,05,28,3.20
2018,07,01,05,29,9.60
2018,07,01,05,30,9.60
2018,07,01,05,31,9.60
2018,07,01,05,32,14.50
2018,07,01,05,33,14.50
2018,07,01,05,34,8.10
2018,07,01,05,35,11.30
2018,07,01,05,36,14.50
2018,07,01,05,37,9.60
2018,07,01,05,38,12.90
2018,07,01,05,39,12.90
2018,07,01,05,40,9.60
2018,07,01,05,41,8.10
2018,07,01,05,42,8.10
2018,07,01,05,43,8.10
2018,07,01,05,44,6.40
2018,07,01,05,45,11.30
2018,07,01,05,46,9.60
2018,07,01,05,47,9.60
2018,07,01,05,48,9.60
2018,07,01,05,49,12.90
2018,07,01,05,50,14.50
2018,07,01,05,51,11.30
2018,07,01,05,52,9.60
2018,07,01,05,53,8.10
2018,07,01,05,54,11.30
2018,07,01,05,55,9.60
2018,07,01,05,56,6.40
2018,07,01,05,57,14.50
2018,07,01,05,58,8.10
2018,07,01,05,59,11.30
2018,07,01,06,00,11.30
2018,07,01,06,01,14.50
2018,07,01,06,02,14.50
2018,07,01,06,03,16.10
2018,07,01,06,04,12.90
2018,07,01,06,05,14.50
2018,07,01,06,06,6.40
2018,07,01,06,07,8.10
2018,07,01,06,08,9.60
2018,07,01,06,09,14.50
2018,07,01,06,10,9.60
2018,07,01,06,11,12.90
2018,07,01,06,12,9.60
2018,07,01,06,13,16.10
2018,07,01,06,14,9.60
2018,07,01,06,15,9.60
2018,07,01,06,16,8.10
2018,07,01,06,17,8.10
2018,07,01,06,18,11.30
2018,07,01,06,19,16.10
2018,07,01,06,20,11.30
2018,07,01,06,21,6.40
2018,07,01,06,22,11.30
2018,07,01,06,23,11.30
2018,07,01,06,24,8.10
2018,07,01,06,25,8.10
2018,07,01,06,26,14.50
2018,07,01,06,27,16.10
2018,07,01,06,28,11.30
2018,07,01,06,29,11.30
2018,07,01,06,30,9.60
2018,07,01,06,31,8.10
2018,07,01,06,32,9.60
2018,07,01,06,33,6.40
2018,07,01,06,34,8.10
2018,07,01,06,35,8.10
2018,07,01,06,36,11.30
2018,07,01,06,37,11.30
2018,07,01,06,38,11.30
2018,07,01,06,39,9.60
2018,07,01,06,40,9.60
2018,07,01,06,41,11.30
2018,07,01,06,42,14.50
2018,07,01,06,43,9.60
2018,07,01,06,44,6.40
2018,07,01,06,45,14.50
2018,07,01,06,46,11.30
2018,07,01,06,47,14.50
2018,07,01,06,48,9.60
2018,07,01,06,49,11.30
2018,07,01,06,50,11.30
2018,07,01,06,51,12.90
2018,07,01,06,52,14.50
2018,07,01,06,53,14.50
2018,07,01,06,54,8.10
2018,07,01,06,55,9.60
2018,07,01,06,56,11.30
2018,07,01,06,57,16.10
2018,07,01,06,58,14.50
2018,07,01,06,59,16.10
2018,07,01,07,00,9.60
2018,07,01,07,01,14.50
2018,07,01,07,02,11.30
2018,07,01,07,03,12.90
2018,07,01,07,04,8.10
2018,07,01,07,05,16.10
2018,07,01,07,06,19.30
2018,07,01,07,07,8.10
2018,07,01,07,08,9.60
2018,07,01,07,09,11.30
2018,07,01,07,10,16.10
2018,07,01,07,11,12.90
2018,07,01,07,12,11.30
2018,07,01,07,13,16.10
2018,07,01,07,14,11.30
2018,07,01,07,15,11.30
2018,07,01,07,16,11.30
2018,07,01,07,17,17.70
2018,07,01,07,18,19.30
2018,07,01,07,19,20.90
2018,07,01,07,20,17.70
2018,07,01,07,21,16.10
2018,07,01,07,22,19.30
2018,07,01,07,23,17.70
2018,07,01,07,24,14.50
2018,07,01,07,25,14.50
2018,07,01,07,26,16.10
2018,07,01,07,27,9.60
2018,07,01,07,28,6.40
2018,07,01,07,29,11.30
2018,07,01,07,30,9.60
2018,07,01,07,31,9.60
2018,07,01,07,32,17.70
2018,07,01,07,33,14.50
2018,07,01,07,34,11.30
2018,07,01,07,35,9.60
2018,07,01,07,36,11.30
2018,07,01,07,37,14.50
2018,07,01,07,38,14.50
2018,07,01,07,39,16.10
2018,07,01,07,40,17.70
2018,07,01,07,41,16.10
2018,07,01,07,42,14.50
2018,07,01,07,43,11.30
2018,07,01,07,44,9.60
2018,07,01,07,45,9.60
2018,07,01,07,46,9.60
2018,07,01,07,47,16.10
2018,07,01,07,48,11.30
2018,07,01,07,49,6.40
2018,07,01,07,50,6.40
2018,07,01,07,51,8.10
2018,07,01,07,52,9.60
2018,07,01,07,53,8.10
2018,07,01,07,54,11.30
2018,07,01,07,55,11.30
2018,07,01,07,56,16.10
2018,07,01,07,57,14.50
2018,07,01,07,58,20.90
2018,07,01,07,59,19.30
2018,07,01,08,00,19.30
2018,07,01,08,01,17.70
2018,07,01,08,02,16.10
2018,07,01,08,03,16.10
2018,07,01,08,04,17.70
2018,07,01,08,05,14.50
2018,07,01,08,06,11.30
2018,07,01,08,07,14.50
2018,07,01,08,08,17.70
2018,07,01,08,09,16.10
2018,07,01,08,10,11.30
2018,07,01,08,11,14.50
2018,07,01,08,12,9.60
2018,07,01,08,13,14.50
2018,07,01,08,14,4.80
2018,07,01,08,15,16.10
2018,07,01,08,16,17.70
2018,07,01,08,17,20.90
2018,07,01,08,18,22.50
2018,07,01,08,19,22.50
2018,07,01,08,20,22.50
2018,07,01,08,21,22.50
2018,07,01,08,22,16.10
2018,07,01,08,23,22.50
2018,07,01,08,24,19.30
2018,07,01,08,25,12.90
2018,07,01,08,26,19.30
2018,07,01,08,27,19.30
2018,07,01,08,28,17.70
2018,07,01,08,29,16.10
2018,07,01,08,30,19.30
2018,07,01,08,31,19.30
2018,07,01,08,32,19.30
2018,07,01,08,33,14.50
2018,07,01,08,34,16.10
2018,07,01,08,35,11.30
2018,07,01,08,36,14.50
2018,07,01,08,37,20.90
2018,07,01,08,38,16.10
2018,07,01,08,39,16.10
2018,07,01,08,40,20.90
2018,07,01,08,41,19.30
2018,07,01,08,42,17.70
2018,07,01,08,43,16.10
2018,07,01,08,44,25.70
2018,07,01,08,45,20.90
2018,07,01,08,46,22.50
2018,07,01,08,47,24.20
2018,07,01,08,48,17.70
2018,07,01,08,49,22.50
2018,07,01,08,50,16.10
2018,07,01,08,51,20.90
2018,07,01,08,52,24.20
2018,07,01,08,53,24.20
2018,07,01,08,54,17.70
2018,07,01,08,55,20.90
2018,07,01,08,56,22.50
2018,07,01,08,57,27.40
2018,07,01,08,58,19.30
2018,07,01,08,59,20.90
2018,07,01,09,00,24.20
2018,07,01,09,01,20.90
2018,07,01,09,02,19.30
2018,07,01,09,03,22.50
2018,07,01,09,04,14.50
2018,07,01,09,05,16.10
2018,07,01,09,06,25.70
2018,07,01,09,07,24.20
2018,07,01,09,08,22.50
2018,07,01,09,09,22.50
2018,07,01,09,10,19.30
2018,07,01,09,11,19.30
2018,07,01,09,12,14.50
2018,07,01,09,13,17.70
2018,07,01,09,14,19.30
2018,07,01,09,15,17.70
2018,07,01,09,16,9.60
2018,07,01,09,17,19.30
2018,07,01,09,18,17.70
2018,07,01,09,19,16.10
2018,07,01,09,20,24.20
2018,07,01,09,21,25.70
2018,07,01,09,22,19.30
2018,07,01,09,23,17.70
2018,07,01,09,24,17.70
2018,07,01,09,25,16.10
2018,07,01,09,26,22.50
2018,07,01,09,27,24.20
2018,07,01,09,28,22.50
2018,07,01,09,29,16.10
2018,07,01,09,30,22.50
2018,07,01,09,31,19.30
2018,07,01,09,32,20.90
2018,07,01,09,33,20.90
2018,07,01,09,34,29.00
2018,07,01,09,35,24.20
2018,07,01,09,36,22.50
2018,07,01,09,37,14.50
2018,07,01,09,38,30.60
2018,07,01,09,39,22.50
2018,07,01,09,40,19.30
2018,07,01,09,41,20.90
2018,07,01,09,42,16.10
2018,07,01,09,43,20.90
2018,07,01,09,44,25.70
2018,07,01,09,45,20.90
2018,07,01,09,46,16.10
2018,07,01,09,47,19.30
2018,07,01,09,48,20.90
2018,07,01,09,49,17.70
2018,07,01,09,50,22.50
2018,07,01,09,51,19.30
2018,07,01,09,52,19.30
2018,07,01,09,53,22.50
2018,07,01,09,54,19.30
2018,07,01,09,55,22.50
2018,07,01,09,56,22.50
2018,07,01,09,57,19.30
2018,07,01,09,58,19.30
2018,07,01,09,59,19.30
2018,07,01,10,00,22.50
2018,07,01,10,01,22.50
2018,07,01,10,02,17.70
2018,07,01,10,03,17.70
2018,07,01,10,04,19.30
2018,07,01,10,05,17.70
2018,07,01,10,06,25.70
2018,07,01,10,07,17.70
2018,07,01,10,08,19.30
2018,07,01,10,09,17.70
2018,07,01,10,10,20.90
2018,07,01,10,11,16.10
2018,07,01,10,12,19.30
2018,07,01,10,13,17.70
2018,07,01,10,14,17.70
2018,07,01,10,15,19.30
2018,07,01,10,16,11.30
2018,07,01,10,17,16.10
2018,07,01,10,18,20.90
2018,07,01,10,19,19.30
2018,07,01,10,20,17.70
2018,07,01,10,21,16.10
2018,07,01,10,22,17.70
2018,07,01,10,23,17.70
2018,07,01,10,24,14.50
2018,07,01,10,25,14.50
2018,07,01,10,26,19.30
2018,07,01,10,27,17.70
2018,07,01,10,28,19.30
2018,07,01,10,29,22.50
2018,07,01,10,30,16.10
2018,07,01,10,31,22.50
2018,07,01,10,32,22.50
2018,07,01,10,33,25.70
2018,07,01,10,34,24.20
2018,07,01,10,35,16.10
2018,07,01,10,36,11.30
2018,07,01,10,37,22.50
2018,07,01,10,38,29.00
2018,07,01,10,39,25.70
2018,07,01,10,40,24.20
2018,07,01,10,41,19.30
2018,07,01,10,42,20.90
2018,07,01,10,43,20.90
2018,07,01,10,44,24.20
2018,07,01,10,45,27.40
2018,07,01,10,46,24.20
2018,07,01,10,47,16.10
2018,07,01,10,48,30.60
2018,07,01,10,49,33.80
2018,07,01,10,50,33.80
2018,07,01,10,51,22.50
2018,07,01,10,52,22.50
2018,07,01,10,53,22.50
2018,07,01,10,54,27.40
2018,07,01,10,55,17.70
2018,07,01,10,56,25.70
2018,07,01,10,57,33.80
2018,07,01,10,58,20.90
2018,07,01,10,59,19.30
2018,07,01,11,00,20.90
2018,07,01,11,01,19.30
2018,07,01,11,02,16.10
2018,07,01,11,03,27.40
2018,07,01,11,04,29.00
2018,07,01,11,05,33.80
2018,07,01,11,06,19.30
2018,07,01,11,07,25.70
2018,07,01,11,08,24.20
2018,07,01,11,09,22.50
2018,07,01,11,10,22.50
2018,07,01,11,11,25.70
2018,07,01,11,12,20.90
2018,07,01,11,13,22.50
2018,07,01,11,14,20.90
2018,07,01,11,15,20.90
2018,07,01,11,16,29.00
2018,07,01,11,17,27.40
2018,07,01,11,18,35.40
2018,07,01,11,19,40.20
2018,07,01,11,20,32.20
2018,07,01,11,21,25.70
2018,07,01,11,22,30.60
2018,07,01,11,23,30.60
2018,07,01,11,24,22.50
2018,07,01,11,25,30.60
2018,07,01,11,26,32.20
2018,07,01,11,27,14.50
2018,07,01,11,28,20.90
2018,07,01,11,29,24.20
2018,07,01,11,30,37.00
2018,07,01,11,31,35.40
2018,07,01,11,32,27.40
2018,07,01,11,33,33.80
2018,07,01,11,34,30.60
2018,07,01,11,35,30.60
2018,07,01,11,36,32.20
2018,07,01,11,37,25.70
2018,07,01,11,38,30.60
2018,07,01,11,39,24.20
2018,07,01,11,40,25.70
2018,07,01,11,41,40.20
2018,07,01,11,42,41.80
2018,07,01,11,43,29.00
2018,07,01,11,44,22.50
2018,07,01,11,45,17.70
2018,07,01,11,46,17.70
2018,07,01,11,47,25.70
2018,07,01,11,48,27.40
2018,07,01,11,49,27.40
2018,07,01,11,50,25.70
2018,07,01,11,51,20.90
2018,07,01,11,52,22.50
2018,07,01,11,53,22.50
2018,07,01,11,54,22.50
2018,07,01,11,55,24.20
2018,07,01,11,56,25.70
2018,07,01,11,57,32.20
2018,07,01,11,58,29.00
2018,07,01,11,59,30.60
2018,07,01,12,00,25.70
2018,07,01,12,01,30.60
2018,07,01,12,02,30.60
2018,07,01,12,03,30.60
2018,07,01,12,04,25.70
2018,07,01,12,05,32.20
2018,07,01,12,06,20.90
2018,07,01,12,07,29.00
2018,07,01,12,08,24.20
2018,07,01,12,09,29.00
2018,07,01,12,10,30.60
2018,07,01,12,11,30.60
2018,07,01,12,12,25.70
2018,07,01,12,13,24.20
2018,07,01,12,14,25.70
2018,07,01,12,15,24.20
2018,07,01,12,16,27.40
2018,07,01,12,17,25.70
2018,07,01,12,18,32.20
2018,07,01,12,19,29.00
2018,07,01,12,20,27.40
2018,07,01,12,21,24.20
2018,07,01,12,22,25.70
2018,07,01,12,23,29.00
2018,07,01,12,24,35.40
2018,07,01,12,25,33.80
2018,07,01,12,26,32.20
2018,07,01,12,27,30.60
2018,07,01,12,28,25.70
2018,07,01,12,29,17.70
2018,07,01,12,30,32.20
2018,07,01,12,31,33.80
2018,07,01,12,32,35.40
2018,07,01,12,33,32.20
2018,07,01,12,34,29.00
2018,07,01,12,35,27.40
2018,07,01,12,36,17.70
2018,07,01,12,37,20.90
2018,07,01,12,38,27.40
2018,07,01,12,39,17.70
2018,07,01,12,40,25.70
2018,07,01,12,41,32.20
2018,07,01,12,42,37.00
2018,07,01,12,43,25.70
2018,07,01,12,44,25.70
2018,07,01,12,45,32.20
2018,07,01,12,46,32.20
2018,07,01,12,47,40.20
2018,07,01,12,48,38.60
2018,07,01,12,49,30.60
2018,07,01,12,50,37.00
2018,07,01,12,51,35.40
2018,07,01,12,52,25.70
2018,07,01,12,53,33.80
2018,07,01,12,54,32.20
2018,07,01,12,55,29.00
2018,07,01,12,56,35.40
2018,07,01,12,57,37.00
2018,07,01,12,58,30.60
2018,07,01,12,59,37.00
2018,07,01,13,00,40.20
2018,07,01,13,01,38.60
2018,07,01,13,02,41.80
2018,07,01,13,03,37.00
2018,07,01,13,04,37.00
2018,07,01,13,05,27.40
2018,07,01,13,06,27.40
2018,07,01,13,07,32.20
2018,07,01,13,08,33.80
2018,07,01,13,09,37.00
2018,07,01,13,10,30.60
2018,07,01,13,11,24.20
2018,07,01,13,12,24.20
2018,07,01,13,13,29.00
2018,07,01,13,14,27.40
2018,07,01,13,15,27.40
2018,07,01,13,16,32.20
2018,07,01,13,17,33.80
2018,07,01,13,18,33.80
2018,07,01,13,19,27.40
2018,07,01,13,20,30.60
2018,07,01,13,21,30.60
2018,07,01,13,22,27.40
2018,07,01,13,23,35.40
2018,07,01,13,24,29.00
2018,07,01,13,25,22.50
2018,07,01,13,26,22.50
2018,07,01,13,27,29.00
2018,07,01,13,28,16.10
2018,07,01,13,29,30.60
2018,07,01,13,30,33.80
2018,07,01,13,31,40.20
2018,07,01,13,32,32.20
2018,07,01,13,33,27.40
2018,07,01,13,34,27.40
2018,07,01,13,35,27.40
2018,07,01,13,36,32.20
2018,07,01,13,37,48.30
2018,07,01,13,38,35.40
2018,07,01,13,39,33.80
2018,07,01,13,40,30.60
2018,07,01,13,41,27.40
2018,07,01,13,42,25.70
2018,07,01,13,43,45.10
2018,07,01,13,44,37.00
2018,07,01,13,45,27.40
2018,07,01,13,46,27.40
2018,07,01,13,47,29.00
2018,07,01,13,48,27.40
2018,07,01,13,49,32.20
2018,07,01,13,50,25.70
2018,07,01,13,51,29.00
2018,07,01,13,52,37.00
2018,07,01,13,53,37.00
2018,07,01,13,54,19.30
2018,07,01,13,55,33.80
2018,07,01,13,56,25.70
2018,07,01,13,57,33.80
2018,07,01,13,58,27.40
2018,07,01,13,59,17.70
2018,07,01,14,00,32.20
2018,07,01,14,01,30.60
2018,07,01,14,02,35.40
2018,07,01,14,03,30.60
2018,07,01,14,04,37.00
2018,07,01,14,05,29.00
2018,07,01,14,06,27.40
2018,07,01,14,07,29.00
2018,07,01,14,08,29.00
2018,07,01,14,09,35.40
2018,07,01,14,10,37.00
2018,07,01,14,11,33.80
2018,07,01,14,12,33.80
2018,07,01,14,13,27.40
2018,07,01,14,14,24.20
2018,07,01,14,15,29.00
2018,07,01,14,16,24.20
2018,07,01,14,17,32.20
2018,07,01,14,18,24.20
2018,07,01,14,19,37.00
2018,07,01,14,20,30.60
2018,07,01,14,21,32.20
2018,07,01,14,22,30.60
2018,07,01,14,23,33.80
2018,07,01,14,24,35.40
2018,07,01,14,25,29.00
2018,07,01,14,26,32.20
2018,07,01,14,27,24.20
2018,07,01,14,28,30.60
2018,07,01,14,29,33.80
2018,07,01,14,30,25.70
2018,07,01,14,31,32.20
2018,07,01,14,32,33.80
2018,07,01,14,33,45.10
2018,07,01,14,34,38.60
2018,07,01,14,35,30.60
2018,07,01,14,36,33.80
2018,07,01,14,37,29.00
2018,07,01,14,38,27.40
2018,07,01,14,39,24.20
2018,07,01,14,40,32.20
2018,07,01,14,41,30.60
2018,07,01,14,42,35.40
2018,07,01,14,43,35.40
2018,07,01,14,44,32.20
2018,07,01,14,45,35.40
2018,07,01,14,46,30.60
2018,07,01,14,47,40.20
2018,07,01,14,48,33.80
2018,07,01,14,49,35.40
2018,07,01,14,50,33.80
2018,07,01,14,51,38.60
2018,07,01,14,52,32.20
2018,07,01,14,53,35.40
2018,07,01,14,54,40.20
2018,07,01,14,55,33.80
2018,07,01,14,56,37.00
2018,07,01,14,57,38.60
2018,07,01,14,58,29.00
2018,07,01,14,59,22.50
2018,07,01,15,00,30.60
2018,07,01,15,01,27.40
2018,07,01,15,02,22.50
2018,07,01,15,03,17.70
2018,07,01,15,04,25.70
2018,07,01,15,05,40.20
2018,07,01,15,06,32.20
2018,07,01,15,07,24.20
2018,07,01,15,08,22.50
2018,07,01,15,09,30.60
2018,07,01,15,10,20.90
2018,07,01,15,11,33.80
2018,07,01,15,12,38.60
2018,07,01,15,13,32.20
2018,07,01,15,14,35.40
2018,07,01,15,15,29.00
2018,07,01,15,16,24.20
2018,07,01,15,17,29.00
2018,07,01,15,18,38.60
2018,07,01,15,19,30.60
2018,07,01,15,20,38.60
2018,07,01,15,21,35.40
2018,07,01,15,22,29.00
2018,07,01,15,23,25.70
2018,07,01,15,24,30.60
2018,07,01,15,25,27.40
2018,07,01,15,26,20.90
2018,07,01,15,27,22.50
2018,07,01,15,28,29.00
2018,07,01,15,29,24.20
2018,07,01,15,30,25.70
2018,07,01,15,31,25.70
2018,07,01,15,32,35.40
2018,07,01,15,33,25.70
2018,07,01,15,34,25.70
2018,07,01,15,35,32.20
2018,07,01,15,36,29.00
2018,07,01,15,37,32.20
2018,07,01,15,38,27.40
2018,07,01,15,39,27.40
2018,07,01,15,40,24.20
2018,07,01,15,41,40.20
2018,07,01,15,42,29.00
2018,07,01,15,43,38.60
2018,07,01,15,44,37.00
2018,07,01,15,45,32.20
2018,07,01,15,46,29.00
2018,07,01,15,47,33.80
2018,07,01,15,48,27.40
2018,07,01,15,49,22.50
2018,07,01,15,50,24.20
2018,07,01,15,51,32.20
2018,07,01,15,52,43.50
2018,07,01,15,53,45.10
2018,07,01,15,54,30.60
2018,07,01,15,55,32.20
2018,07,01,15,56,32.20
2018,07,01,15,57,29.00
2018,07,01,15,58,32.20
2018,07,01,15,59,43.50
2018,07,01,16,00,40.20
2018,07,01,16,01,30.60
2018,07,01,16,02,38.60
2018,07,01,16,03,53.10
2018,07,01,16,04,35.40
2018,07,01,16,05,33.80
2018,07,01,16,06,27.40
2018,07,01,16,07,35.40
2018,07,01,16,08,22.50
2018,07,01,16,09,16.10
2018,07,01,16,10,30.60
2018,07,01,16,11,33.80
2018,07,01,16,12,38.60
2018,07,01,16,13,30.60
2018,07,01,16,14,24.20
2018,07,01,16,15,30.60
2018,07,01,16,16,27.40
2018,07,01,16,17,40.20
2018,07,01,16,18,32.20
2018,07,01,16,19,33.80
2018,07,01,16,20,22.50
2018,07,01,16,21,24.20
2018,07,01,16,22,22.50
2018,07,01,16,23,27.40
2018,07,01,16,24,22.50
2018,07,01,16,25,22.50
2018,07,01,16,26,32.20
2018,07,01,16,27,38.60
2018,07,01,16,28,27.40
2018,07,01,16,29,27.40
2018,07,01,16,30,27.40
2018,07,01,16,31,25.70
2018,07,01,16,32,25.70
2018,07,01,16,33,30.60
2018,07,01,16,34,30.60
2018,07,01,16,35,30.60
2018,07,01,16,36,32.20
2018,07,01,16,37,27.40
2018,07,01,16,38,24.20
2018,07,01,16,39,32.20
2018,07,01,16,40,29.00
2018,07,01,16,41,33.80
2018,07,01,16,42,17.70
2018,07,01,16,43,17.70
2018,07,01,16,44,22.50
2018,07,01,16,45,32.20
2018,07,01,16,46,32.20
2018,07,01,16,47,35.40
2018,07,01,16,48,30.60
2018,07,01,16,49,30.60
2018,07,01,16,50,37.00
2018,07,01,16,51,24.20
2018,07,01,16,52,37.00
2018,07,01,16,53,29.00
2018,07,01,16,54,40.20
2018,07,01,16,55,38.60
2018,07,01,16,56,33.80
2018,07,01,16,57,41.80
2018,07,01,16,58,40.20
2018,07,01,16,59,33.80
2018,07,01,17,00,33.80
2018,07,01,17,01,38.60
2018,07,01,17,02,27.40
2018,07,01,17,03,27.40
2018,07,01,17,04,24.20
2018,07,01,17,05,30.60
2018,07,01,17,06,37.00
2018,07,01,17,07,27.40
2018,07,01,17,08,30.60
2018,07,01,17,09,38.60
2018,07,01,17,10,25.70
2018,07,01,17,11,32.20
2018,07,01,17,12,30.60
2018,07,01,17,13,33.80
2018,07,01,17,14,32.20
2018,07,01,17,15,24.20
2018,07,01,17,16,22.50
2018,07,01,17,17,32.20
2018,07,01,17,18,29.00
2018,07,01,17,19,32.20
2018,07,01,17,20,33.80
2018,07,01,17,21,22.50
2018,07,01,17,22,25.70
2018,07,01,17,23,25.70
2018,07,01,17,24,25.70
2018,07,01,17,25,19.30
2018,07,01,17,26,20.90
2018,07,01,17,27,20.90
2018,07,01,17,28,20.90
2018,07,01,17,29,32.20
2018,07,01,17,30,24.20